SBS 5

operational
NORAD ID: 19484 Int'l Des: 1988-081 Owner: STLC Country: US
HEOCIRCULAR

About SBS 5

Description loading...

Live Position

Loading 3D Globe...

Upcoming Passes

Altitude History

Altitude vs Time

uPlot chart will show altitude changes over time

Two-Line Element Set

1 19484U 88081B 25306.28740947 .00000076 00000-0 00000+0 0 9990
2 19484 14.5540 2.6372 0006761 289.1187 85.1048 0.99786747 44206
Epoch: Nov 2, 2025 • Age: 30 hours

Current Status

Altitude 35950.4 km
Velocity 3.07 km/s
Sub-Earth Point 13.63°N, 130.04°W
Launch Date Sep 8, 1988
Age 37.1 years
Type other

Technical Details

Classification Payload
Mass 703.00 kg
Dry Mass 550.00 kg
Total Mass 1246.00 kg
Length 6.60 m
Diameter 2.20 m
Span 6.60 m
Shape Cyl
Manufacturer HSES
Bus Type HS-376
Phase Status Renamed
Owner/State STLC/US

Large Constellations

Loading constellations...